User: anonymous   Login
Location: Mentone
(34.5413°N, 85.5351°W)
Time: 02:21:27
(UTC-05:00)
Language:

Transit 2A Rocket - Orbit

View from above orbital plane
View from above orbital plane
View from above satellite
View from above satellite

Ground track
Ground track

The orbit data is extracted from the following two-line orbital elements,

1 00047U 60007C   15240.87552783  .00000074  00000-0  41802-4 0  9991
2 00047 066.6661 165.3994 0224951 148.3769 213.1083 14.41680736882165
Epoch (UTC): 28 August 2015 21:00:45
Eccentricity: 0.0224951
inclination: 66.6661°
perigee height: 592 km
apogee height: 913 km
right ascension of ascending node: 165.3994°
argument of perigee: 148.3769°
revolutions per day: 14.41680736
mean anomaly at epoch: 213.1083°
orbit number at epoch: 88216

The dashed part of the orbit path shows where the satellite is in the earth's shadow,  

DLR